Погода в Адрасане

Турция     36°19′52″N   30°25′56″E
темп.,
°C
ветер,
м/с
пор.,
м/с
влажн.,
%
обл.,
%
осадки,
мм/ч
давл.,
гПа
погр.,
м
22 апреля, чт
чт2200:00+16ссв67720 0.0 1017273
03:00+15ссв44735 0.0 1017209
06:00+15ссв22730 0.0 1018144
09:00+18в11590 0.0 1019313
12:00+19ююз32550 0.0 1020631
15:00+20юз54545 0.0 1019523
18:00+19зюз45555 0.0 1018265
21:00+17з44645 0.0 101966
23 апреля, пт
пт2300:00+17ссв33635 0.0 101929
03:00+16ссв34635 0.0 101961
06:00+16ссв45665 0.0 101998
09:00+19св45605 0.0 1019289
12:00+21всв445039 0.0 1019490
15:00+21юв2149100 0.0 1018551
18:00+20зюз335584 0.0 1017232
21:00+17зсз33600 0.0 101730
24 апреля, сб
сб2400:00+18ссв22625 0.0 101717
03:00+17сз11645 0.0 101511
06:00+17зсз11555 0.0 101411
09:00+21юв004795 0.0 1015148
12:00+23ююз2240100 0.0 1014430
15:00+23юз444615 0.0 1013347
18:00+22зюз444998 0.0 1012161
21:00+18з446643 0.0 101256
25 апреля, вс
вс2500:00+19ссв3466100 0.0 101142
03:00+19ссв2260100 0.0 100919
06:00+19св4658100 0.0 100796
09:00+21ссв015074 0.0 1009121
12:00+23ю224488 0.0 1008576
15:00+23ю3346100 0.0 1007421
18:00+21юз33522 0.0 1006189
21:00+18ююз11670 0.0 100611
26 апреля, пн
пн2600:00+18св22640 0.0 100619
03:00+17ссз22590 0.0 100514
06:00+16сз22500 0.0 100421
09:00+20зюз11460 0.0 1006177
12:00+22ююз33470 0.0 1007469
15:00+21зюз56492 0.0 1007386
18:00+20зюз66614 0.0 1007211
21:00+19сз12620 0.0 100826